Weather History for Trinidad, CO

Change the Weather History Date:

Wednesday, June 4, 2014

  Actual Average Record
Temperature  
Mean Temperature 73 °F 65 °F  
Max Temperature 91 °F 80 °F 96 °F (1990)
Min Temperature 54 °F 49 °F 39 °F (1950)
Degree Days  
Heating Degree Days 0 3  
Month to date heating degree days 0 12  
Since 1 June heating degree days 0 12  
Since 1 July heating degree days 5332 5507  
Cooling Degree Days 8 3  
Month to date cooling degree days 38 9  
Year to date cooling degree days 72 37  
Since 1 June cooling degree days 38 9  
Growing Degree Days 22 (Base 50)    
Moisture  
Dew Point 39 °F    
Average Humidity 32    
Maximum Humidity 51    
Minimum Humidity 13    
Precipitation  
Precipitation 0.00 in 0.05 in 1.48 in (1978)
Month to date precipitation 0.00 0.21  
Year to date precipitation 2.46 4.73  
Sea Level Pressure  
Sea Level Pressure 29.70 in    
Wind  
Wind Speed 12 mph (East)    
Max Wind Speed 30 mph    
Max Gust Speed 41 mph    
Visibility 10 miles    
Events      
T = Trace of Precipitation, MM = Missing Value Source: NWS Daily Summary

Daily Weather History Graph

Daily Weather History Graph

Search for Another Location

Airport:

Trip Planner

Search our weather history database for the weather conditions in past years. The results will help you decide how hot, cold, wet, or windy it might be!

Date:

Astronomy

Jun. 04, 2014 Rise Set
Actual Time 5:37 AM MDT 8:14 PM MDT
Civil Twilight 5:07 AM MDT 8:44 PM MDT
Nautical Twilight 4:29 AM MDT 9:22 PM MDT
Astronomical Twilight 3:46 AM MDT 10:05 PM MDT
Moon 11:53 AM MDT (6/4) 12:19 AM MDT (6/4)
Length of Visible Light 15h 37m
Length of Day
14h 36m
Waxing Crescent, 39% of the Moon is Illuminated
Jun 4
Waxing Crescent
Jun 5
First Quarter
Jun 12
Full
Jun 19
Last Quarter
Jun 27
New

Hourly Weather History & Observations

Time (MDT) Temp. Dew Point Humidity Pressure Visibility Wind Dir Wind Speed Gust Speed Precip Events Conditions
12:54 AM 66.0 °F 26.1 °F 22% 29.66 in 10.0 mi SSW 8.1 mph - N/A   Clear
1:54 AM 61.0 °F 32.0 °F 34% 29.67 in 10.0 mi NW 9.2 mph - N/A   Clear
2:54 AM 61.0 °F 30.0 °F 31% 29.68 in 10.0 mi NW 6.9 mph - N/A   Clear
3:54 AM 60.1 °F 28.0 °F 30% 29.71 in 10.0 mi NW 12.7 mph - N/A   Clear
4:54 AM 55.0 °F 28.9 °F 37% 29.75 in 10.0 mi WNW 9.2 mph - N/A   Clear
5:54 AM 55.0 °F 36.0 °F 49% 29.76 in 10.0 mi WNW 8.1 mph - N/A   Clear
6:54 AM 59.0 °F 41.0 °F 51% 29.78 in 10.0 mi West 6.9 mph - N/A   Clear
7:54 AM 66.0 °F 39.9 °F 38% 29.79 in 10.0 mi WNW 6.9 mph - N/A   Clear
8:54 AM 70.0 °F 46.9 °F 44% 29.79 in 10.0 mi East 4.6 mph - N/A   Clear
9:54 AM 75.0 °F 48.9 °F 40% 29.81 in 10.0 mi East 9.2 mph - N/A   Clear
10:54 AM 78.1 °F 46.9 °F 33% 29.80 in 10.0 mi East 5.8 mph - N/A   Clear
11:54 AM 80.1 °F 42.1 °F 26% 29.78 in 10.0 mi ESE 9.2 mph 16.1 mph N/A   Clear
12:54 PM 84.0 °F 42.1 °F 23% 29.74 in 10.0 mi ESE 13.8 mph 25.3 mph N/A   Clear
1:54 PM 88.0 °F 37.0 °F 16% 29.69 in 10.0 mi East 16.1 mph 25.3 mph N/A   Clear
2:54 PM 89.1 °F 33.1 °F 14% 29.66 in 10.0 mi East 17.3 mph 26.5 mph N/A   Clear
3:54 PM 86.0 °F 30.9 °F 14% 29.64 in 10.0 mi East 23.0 mph 35.7 mph N/A   Clear
4:54 PM 86.0 °F 39.9 °F 20% 29.62 in 10.0 mi ESE 25.3 mph 38.0 mph N/A   Clear
5:54 PM 84.9 °F 46.0 °F 26% 29.62 in 10.0 mi ESE 24.2 mph 41.4 mph N/A   Clear
6:54 PM 82.9 °F 48.9 °F 31% 29.60 in 10.0 mi East 26.5 mph 36.8 mph N/A   Clear
7:54 PM 82.0 °F 44.1 °F 26% 29.60 in 10.0 mi East 12.7 mph - N/A   Clear
9:54 PM 75.0 °F 51.1 °F 43% 29.65 in 10.0 mi SE 15.0 mph - N/A   Clear
10:54 PM 71.1 °F 44.1 °F 38% 29.66 in 10.0 mi WSW 4.6 mph - N/A   Clear
11:54 PM 64.0 °F 27.0 °F 25% 29.67 in 10.0 mi NW 6.9 mph - N/A   Clear